Regional Weather Roundup
Issued by NWS Wakefield, VA

Home | Current Version | Previous Version | Graphics & Text | Print | Product List | Glossary On
Versions: 1 2 3 4 5 6 7 8 9 10 11 12 13 14 15 16 17 18 19 20 21 22 23 24 25 26 27 28 29 30 31 32 33 34 35 36 37 38 39 40 41 42 43 44 45 46 47 48 49 50
000
ASUS41 KAKQ 250710
RWRAKQ

REGIONAL WEATHER ROUNDUP
NATIONAL WEATHER SERVICE WAKEFIELD VA
300 AM EDT FRI JUL 25 2014

Note: "fair" indicates few or no clouds below 12,000 feet with no
significant weather and/or obstructions to visibility. * = Denotes
station may not report precipitation (e.g., rain,snow,etc.),
thunder or fog.

VAZ042-051-052>054-056-250800-
NORTHERN VIRGINIA

CITY           SKY/WX    TMP DP  RH WIND       PRES   REMARKS
WASH NATIONAL  CLEAR     68  56  65 N7        29.99S
DULLES         PTCLDY    61  58  90 NW6       30.00S
FORT BELVOIR   CLEAR     60  59  96 CALM      29.99S
QUANTICO       CLEAR     64  61  90 W6        29.99S
FREDERICKSBRG* CLEAR     65  65 100 CALM      29.98F
STAFFORD*        N/A     60  60 100 NW3       30.02F FOG
WARRENTON      FOG       59  59 100 CALM      29.99S VSB 1/4
CULPEPER*      PTCLDY   N/A N/A N/A CALM      30.00S
MANASSAS*      CLEAR     61  61 100 CALM      30.00S
LEESBURG*      CLEAR     61  61 100 CALM      30.01S
WINCHESTER     PTCLDY    59  57  94 SE3       30.02R
$$

VAZ048-049-060>072-079>083-250800-
CENTRAL AND SOUTH CENTRAL VIRGINIA...AND NORTH CENTRAL NORTH CAROLINA

CITY           SKY/WX    TMP DP  RH WIND       PRES   REMARKS
RICHMOND       PTCLDY    68  65  90 NW5       29.98S
CHESTERFIELD*  SUNNY     66  55  68 CALM      30.00S
HANOVER        PTCLDY    65  63  93 CALM      29.99F FOG
TAPPAHANNOCK*  CLEAR     67  64  90 CALM      29.98S
CHARLOTTSVILLE PTCLDY    63  62  97 CALM      30.01R FOG
ORANGE*        CLEAR     61  61 100 CALM      30.01S
LOUISA*        CLEAR     61  59  94 CALM      29.98F FOG
FARMVILLE*     PTCLDY    64  63  94 CALM      29.97F FOG
SOUTH HILL*    CLOUDY    70  70 100 CALM      30.05S FOG
ROANOKE RAPIDS PTSUNNY   61  61 100 CALM      29.98S FOG
RALEIGH        MOCLDY    67  65  93 CALM      30.00R
$$

VAZ088>098-250800-
SOUTHEAST VIRGINIA

CITY           SKY/WX    TMP DP  RH WIND       PRES   REMARKS
NORFOLK        RAIN      72  69  90 NW5       29.95R FOG
VIRGINIA BEACH LGT RAIN  72  70  93 SW8       29.93R
NORFOLK NAVAL  CLOUDY    72  69  90 W7        29.97R
WEST POINT*    CLOUDY    71  68  90 NW3       29.98R
NEWPORT NEWS   CLOUDY    73  68  84 NW6       29.96R
LANGLEY AFB    CLOUDY    70  70 100 NW6       29.95R
FORT EUSTIS    MOCLDY    71  71 100 NW6       29.95R
WILLIAMSBURG*  MOCLDY    70  70 100 NW3       29.97R
FRANKLIN*      CLOUDY    70 N/A N/A W5        29.98R
WAKEFIELD      CLOUDY    69  67  93 VRB3      29.98R
$$

VAZ020-022-025-037-045-250800-
WESTERN AND SOUTHWEST VIRGINIA

CITY           SKY/WX    TMP DP  RH WIND       PRES   REMARKS
STAUNTON*      CLOUDY    66  64  93 CALM      30.05S FOG
HOT SPRINGS VA PTCLDY    55  50  82 N5        30.14S
LYNCHBURG      PTCLDY    65  65 100 CALM      30.03S FOG
DANVILLE       CLOUDY    70  65  84 CALM      30.02S
MARTINSVILLE   CLOUDY    68  66  92 CALM      30.05S
ROANOKE        CLOUDY    66  64  94 SE9       30.06R
BLACKSBURG     CLOUDY    64  64 100 CALM        N/A
DUBLIN*        PTCLDY    63  61  94 NW6       30.09S
MARION*        CLEAR    N/A N/A N/A CALM      30.12F
HILLSVILLE*    CLOUDY    62  59  91 CALM      30.10S
RICHLANDS*     MOSUNNY   62  60  94 CALM      30.11F
WISE*          MOCLDY    57  57 100 E3        30.10F FOG
ABINGDON*      PTCLDY    63  62  94 CALM      30.08F
$$

MDZ021>025-VAZ099-100-250800-
SOUTHERN MARYLAND AND THE DELMARVA PENINSULA

CITY           SKY/WX    TMP DP  RH WIND       PRES   REMARKS
PATUXENT RIVER PTCLDY    68  62  81 NW8       29.96R
BAY BRIDGE APT   N/A     70  54  56 N6        29.98R
LEONARDTOWN    CLEAR     63  59  88 CALM      29.98F
DOVER          PTCLDY    64  59  81 N6        29.94R
GEORGETOWN     MOCLDY    67  59  75 VRB6      29.95R
EASTON         PTCLDY    68  59  74 NE6       30.00S
CAMBRIDGE      CLEAR     72  55  56 N6        29.96R
SALISBURY      NOT AVBL
OCEAN CITY     CLOUDY    70  63  78 N8        29.93R
WALLOPS ISLAND CLOUDY    71  67  87 N8        29.94R
ACCOMACK*        N/A     70  66  88 NW3       29.93S
$$

NCZ012>017-030>032-250800-
EASTERN NORTH CAROLINA

CITY           SKY/WX    TMP DP  RH WIND       PRES   REMARKS
ELIZABETH CITY CLOUDY    68  67  96 NW9       29.95R
AHOSKIE*       CLOUDY    68  67  96 CALM      29.98R
EDENTON*       CLOUDY    69  68  97 N7        29.95R
CURRITUCK*     CLOUDY    70  68  92 NW7       29.95R
KILL DEVIL HLS CLOUDY    72  70  92 W3        29.90F
MANTEO         NOT AVBL
CAPE HATTERAS  CLOUDY    72  72 100 N3        29.90F
GOLDSBORO      PTCLDY    68  67  99 NW9       29.96R
WASHINGTON     MOCLDY    67  66  97 CALM      29.96R
GREENVILLE     CLEAR     68  68 100 N5        29.98S
NEW BERN       CLOUDY    71  68  90 CALM      29.95F
WILMINGTON     MOCLDY    73  72  96 SE6       29.93F
$$

VAZ048-250800-
ELSEWHERE

CITY           SKY/WX    TMP DP  RH WIND       PRES   REMARKS
HARRISBURG PA  CLEAR     62  52  69 N3        30.00F
BALTIMORE      CLEAR     64  54  69 N3        29.99R
ANNAPOLIS      CLEAR     71  58  63 N9        29.98R
ANDREWS AFB    CLEAR     62  55  76 N7        29.98S
WILMINGTON DE  CLEAR     63  54  72 N7        29.98R
PHILADELPHIA   MOCLDY    67  52  58 N7        29.97R
WILDWOOD NJ*   MOCLDY    70  54  56 N8        29.95R
ATLANTIC CITY  MOCLDY    63  56  78 MISG      29.94R
HENDERSON NC   CLOUDY    68  66  94 NW5       30.00S FOG
GREENSBORO     MOCLDY    68  66  93 N5        30.01F
ROCKY MOUNT    PTCLDY    68  66  93 N3        29.97F
FAYETTEVILLE   MOCLDY    70  68  93 N7        29.96F
CHARLOTTE      PTCLDY    71  67  87 N3        30.02R
$$

VAZ100-250800-
MARINE

STATION/POSITION TIME  TEMP    WIND        PRES    WAVE   SWELL
                       AIR SEA DIR/SP/G            HT/PER HT/PER
                 (UTC) (F)     (DEG/KT/KT) (MB)    (FT/S) (FT/S)
44066 TX TWR #4  0700   73 74  320/ 12/ 14 1011.7R   2/ 8   2/ 8
CAPE MAY NJ      0700   72 77  360/  6/ 12 1013.3R
LEWES DE         0700   73 70   10/ 16/ 19 1013.5R
15NM E FENWICK I 0700   74 76              1012.9R   2/ 8
OCEAN-CITY-INLET 0700   72 71  360/ 11/ 14 1012.9R
WACHAPREAGUE VA  0700   70 80   CALM  /  2 1013.5R
THOMAS POINT MD  0700   72 79  360/ 15/ 17 1015.3R
GOOSES REEF MD   0700   76      30/ 16/ 19 1014.9F
COVE POINT MD    0700   75      30/ 16/ 20 1014.2F
SOLOMONS ISLAND  0700      80                N/A
BISHOPS HEAD MD  0700   71 79  350/  7/ 12 1013.9R
PINEY POINT MD   0700           30/ 10/ 12   N/A
POTOMAC MD       0700   72      10/ 10/ 12 1013.5S
CAMBRIDGE MD     0700   71 80   10/ 12/ 14 1014.1S
LEWISETTA VA     0700   73 80  360/  8/ 11 1014.1F
RAPPAHANNOCK LGT 0700          320/ 16/ 18 1014.2R
STINGRAY PT      0700   73     330/ 12/ 14 1014.6R
YORK RVR RNG VA  0700   72     340/ 12/ 14 1013.4R
YORKTOWN VA      0700   72 80  320/ 11/ 13 1013.9S
JAMESTOWN VA     0700   71     340/  8/ 12   N/A
DOMINION TERM VA 0700   73     330/  9/ 12 1014.1R
KIPTOPEKE VA     0700      81   10/  2/  2   N/A
CHES BAY BRIDGE  0700   73 78  320/ 12/ 14 1013.3R
CAPE HENRY VA    0700   72     320/ 10/ 13 1012.4R
WILLOUBY STN VA  0700          340/  7/  9 1013.3R
S CRANEY ISL VA  0700          290/  6/ 10 1014.1R
CAPE HENRY BUOY  0700      77                N/A     2/ 7
1ST LANDING BUOY 0700   75     330/ 10/ 14 1013.3R
CAPE CHARLES BUO 0700      76                N/A     2/ 8
OFFSHORE WE BUOY 0700      78                N/A     2/ 7
64NM E OF VA BCH 0700   76 78  330/ 10/ 12 1012.0R   3/ 7   2/ 7
DUCK PIER NC     0700   72 76  310/ 10/ 13 1012.4R
44056 DUCK FRF   0700                        N/A     2/ 8
OREGON INLET NC  0700   72 77  190/  2/  2 1012.4R
HATTERAS NC      0700   74 80   80/  2/  6 1012.7R
DIAMOND SHLS NC  0700          VRB 10/ 12  1012.0F   3/ 7   2/ 7
CAPE LOOKOUT NC  0600   72     350/  6/  6 1013.6F
$$



USA.gov is the U.S. government's official web portal to all federal, state and local government web resources and services.